Weather History for Barking Sands, HI

Change the Weather History Date:

Friday, February 7, 2014

  Actual Average Record
Temperature  
Mean Temperature 73 °F -  
Max Temperature 73 °F 80 °F 84 °F (1977)
Min Temperature 70 °F 62 °F 58 °F (1951)
Cooling Degree Days 8    
Growing Degree Days 23 (Base 50)    
Moisture  
Dew Point 62 °F    
Average Humidity 74    
Maximum Humidity 76    
Minimum Humidity 71    
Precipitation  
Precipitation 0.00 in - - ()
Sea Level Pressure  
Sea Level Pressure 29.95 in    
Wind  
Wind Speed 18 mph (North)    
Max Wind Speed 29 mph    
Max Gust Speed 36 mph    
Visibility 10 miles    
Events      
Averages and records for this station are not official NWS values.
T = Trace of Precipitation, MM = Missing Value Source: NWS Daily Summary

Daily Weather History Graph

Daily Weather History Graph

Search for Another Location

Airport:

Trip Planner

Search our weather history database for the weather conditions in past years. The results will help you decide how hot, cold, wet, or windy it might be!

Date:

Astronomy

Feb. 07, 2014 Rise Set
Actual Time 7:14 AM HST 6:32 PM HST
Civil Twilight 6:51 AM HST 6:55 PM HST
Nautical Twilight 6:25 AM HST 7:21 PM HST
Astronomical Twilight 5:58 AM HST 7:48 PM HST
Moon 12:59 PM HST (2/7) 1:35 AM HST (2/7)
Length of Visible Light 12h 03m
Length of Day
11h 17m
First Quarter, 61% of the Moon is Illuminated
Feb 7
First Quarter
Feb 14
Full
Feb 22
Last Quarter
Feb 28
New
Mar 8
First Quarter

Hourly Weather History & Observations

Time (HST) Temp. Dew Point Humidity Pressure Visibility Wind Dir Wind Speed Gust Speed Precip Events Conditions
12:56 AM - - N/A% 29.98 in 10.0 mi North 20.7 mph 28.8 mph N/A   Overcast
1:56 AM - - N/A% 29.98 in 10.0 mi North 15.0 mph 23.0 mph N/A   Overcast
2:41 AM - - N/A% 29.96 in 10.0 mi North 13.8 mph - N/A   Mostly Cloudy
2:56 AM - - N/A% 29.97 in 10.0 mi North 19.6 mph 27.6 mph N/A   Overcast
3:31 AM - - N/A% 29.95 in 10.0 mi North 13.8 mph - N/A   Overcast
3:56 AM - - N/A% 29.95 in 10.0 mi North 9.2 mph - N/A   Overcast
4:29 AM - - N/A% 29.94 in 10.0 mi North 15.0 mph - N/A   Overcast
4:53 AM - - N/A% 29.94 in 10.0 mi North 17.3 mph - N/A   Overcast
4:56 AM - - N/A% 29.95 in 10.0 mi North 15.0 mph - N/A   Overcast
5:56 AM - - N/A% 29.96 in 10.0 mi North 13.8 mph - N/A   Overcast
6:56 AM - - N/A% 29.97 in 10.0 mi North 13.8 mph 23.0 mph N/A   Overcast
7:56 AM - - N/A% 29.99 in 10.0 mi North 19.6 mph - N/A   Overcast
8:56 AM - - N/A% 29.99 in 10.0 mi North 18.4 mph - N/A   Overcast
9:56 AM - - N/A% 30.02 in 10.0 mi North 25.3 mph 32.2 mph N/A   Overcast
10:56 AM - - N/A% 30.01 in 10.0 mi North 18.4 mph 27.6 mph N/A   Mostly Cloudy
11:56 AM - - N/A% 29.97 in 10.0 mi North 21.9 mph - N/A   Partly Cloudy
12:56 PM - - N/A% 29.95 in 10.0 mi NNE 20.7 mph 31.1 mph N/A   Overcast
1:31 PM - - N/A% 29.92 in 10.0 mi North 23.0 mph - N/A   Overcast
1:56 PM - - N/A% 29.91 in 10.0 mi North 21.9 mph 28.8 mph N/A   Mostly Cloudy
2:56 PM 73.0 °F 64.9 °F 76% 29.88 in 10.0 mi North 19.6 mph 26.5 mph N/A   Overcast
3:56 PM - - N/A% 29.89 in 10.0 mi North 24.2 mph 34.5 mph N/A   Overcast
4:56 PM - - N/A% 29.89 in 10.0 mi North 28.8 mph 35.7 mph N/A   Overcast
5:56 PM - - N/A% 29.91 in 10.0 mi North 23.0 mph 33.4 mph N/A   Overcast
6:56 PM - - N/A% 29.94 in 10.0 mi North 25.3 mph 34.5 mph N/A   Overcast
7:12 PM - - N/A% 29.94 in 10.0 mi North 27.6 mph 34.5 mph N/A   Overcast
7:56 PM - - N/A% 29.96 in 10.0 mi North 23.0 mph - N/A   Overcast
8:56 PM - - N/A% 29.96 in 10.0 mi North 21.9 mph 29.9 mph N/A   Overcast
9:56 PM - - N/A% 29.97 in 10.0 mi NNE 11.5 mph - 0.00 in   Overcast
10:56 PM - - N/A% 29.97 in 10.0 mi North 6.9 mph - 0.00 in   Overcast
11:56 PM 70.0 °F 60.1 °F 71% 29.96 in 10.0 mi North 10.4 mph - N/A   Overcast